Galena, Nevada Weather observations

Data are for 60 minute period ending nearest time listed.
 Day   Time    Ave.   Ave.  Ave.  Vector   Max.   Total    Solar   
  of    of     Air    Rel.  Wind   Wind    Wind  Precip.   Rad.    
Year   Day     Temp.  Hum.  Speed  Dir.    Gust                    
2026   (PST)    F      %     mph   deg.    mph     in.     W/m2    
------------------------------------------------------------------- 
 122   23:00   51.0    67    4.0   337     11.0    0.63       0  
 123    0:00   50.0    69    4.0   193     11.0    0.63       0  
 123    1:00   50.0    66    5.0   355      9.0    0.63       0  
 123    2:00   51.0    57    5.0   351      8.0    0.63       0  
 123    3:00   52.0    51    6.0   306      9.0    0.63       0  
 123    4:00   49.0    60    2.0   251     10.0    0.63       0  
 123    5:00   51.0    51    2.0   288      6.0    0.63       0  
 123    6:00   52.0    49    5.0   311      6.0    0.63      14  
 123    7:00   57.0    46    1.0   319      6.0    0.63     119  
 123    8:00   59.0    48    3.0    65      7.0    0.63     257  
 123    9:00   61.0    36    4.0    71     10.0    0.63     366  
 123   10:00   64.0    32    6.0    34     13.0    0.63     616  
 123   11:00   66.0    31    5.0   348     13.0    0.63     792  
 123   12:00   66.0    30    8.0   354     16.0    0.63     839  
 123   13:00   68.0    26    6.0    29     17.0    0.63     669  
 123   14:00   57.0    40   22.0   171     40.0    0.63     443  
 123   15:00   51.0    51   15.0   241     36.0    0.63     174  
 123   16:00   56.0    44   12.0   204     25.0    0.63     304  
 123   17:00   55.0    44    5.0   314     21.0    0.63     151  
 123   18:00   52.0    57    3.0    98     15.0    0.63      82  
 123   19:00   52.0    45    8.0   290     17.0    0.63      10  
 123   20:00   48.0    63    1.0    57     15.0    0.63       0  
 123   21:00   48.0    62    2.0   254      4.0    0.63       0  
 123   22:00   46.0    59    5.0   261      8.0    0.63       0  

Return to Galena, Nevada graphs page.


Western Regional Climate Center,wrcc@dri.edu